Fremont, MI

2:49 PM EST on February 06, 2016 (GMT -0500)
Fremont

Weather History for KFFX - July, 2014

Change the Weather History Date:

Tuesday, July 22, 2014

  Actual Average (KMKG) Record (KMKG)
Temperature  
Mean Temperature 74 °F 71 °F  
Max Temperature 86 °F 81 °F 93 °F (1901)
Min Temperature 62 °F 62 °F 46 °F (1947)
Degree Days  
Heating Degree Days 0 0  
Month to date heating degree days 4  
Since 1 June heating degree days 70  
Since 1 July heating degree days 4  
Cooling Degree Days 9 7  
Month to date cooling degree days 145  
Year to date cooling degree days 279  
Since 1 June cooling degree days 250  
Growing Degree Days 24 (Base 50)    
Moisture  
Dew Point 65 °F    
Average Humidity 75    
Maximum Humidity 100    
Minimum Humidity 47    
Precipitation  
Precipitation 0.00 in 0.08 in 1.39 in (2010)
Month to date precipitation 1.60  
Year to date precipitation 16.42  
Snow  
Snow 0.00 in 0.00 in - ()
Month to date snowfall 0.0  
Since 1 June snowfall 0.0  
Since 1 July snowfall 0.0  
Snow Depth -    
Sea Level Pressure  
Sea Level Pressure 29.99 in    
Wind  
Wind Speed 6 mph (SSW)    
Max Wind Speed 22 mph    
Max Gust Speed 28 mph    
Visibility 9 miles    
Events Rain    
T = Trace of Precipitation, MM = Missing Value Source: NWS Daily Summary

Daily Weather History Graph

Daily Weather History Graph

Search for Another Location

Airport or City:

Trip Planner

Search our weather history database for the weather conditions in past years. The results will help you decide how hot, cold, wet, or windy it might be!

Date:

Astronomy

Jul. 22, 2014 Rise Set
Actual Time 6:23 AM EDT 9:16 PM EDT
Civil Twilight 5:49 AM EDT 9:50 PM EDT
Nautical Twilight 5:06 AM EDT 10:33 PM EDT
Astronomical Twilight 4:16 AM EDT 11:22 PM EDT
Moon 2:57 AM EDT (7/22) 5:53 PM EDT (7/22)
Length of Visible Light 16h 00m
Length of Day
14h 53m
Waning Crescent, 16% of the Moon is Illuminated
Jul 22
Waning Crescent
Jul 26
New
Aug 3
First Quarter
Aug 10
Full
Aug 17
Last Quarter

Hourly Weather History & Observations

Time (EDT) Temp. Heat Index Dew Point Humidity Pressure Visibility Wind Dir Wind Speed Gust Speed Precip Events Conditions
12:15 AM 66.4 °F - 62.6 °F 88% 30.08 in 10.0 mi SE 3.5 mph - N/A   Clear
12:34 AM 67.8 °F - 63.0 °F 84% 30.07 in 10.0 mi Calm Calm - N/A   Clear
12:55 AM 66.7 °F - 62.4 °F 86% 30.07 in 10.0 mi SE 3.5 mph - N/A   Clear
1:15 AM 66.4 °F - 63.0 °F 89% 30.06 in 10.0 mi SE 4.6 mph - N/A   Clear
1:35 AM 67.3 °F - 63.0 °F 86% 30.07 in 10.0 mi Calm Calm - N/A   Clear
1:54 AM 66.2 °F - 63.5 °F 91% 30.06 in 10.0 mi South 3.5 mph - N/A   Clear
2:15 AM 64.2 °F - 62.6 °F 94% 30.06 in 10.0 mi Calm Calm - N/A   Clear
2:35 AM 65.3 °F - 63.7 °F 94% 30.06 in 10.0 mi Calm Calm - N/A   Clear
2:54 AM 65.7 °F - 63.5 °F 93% 30.06 in 10.0 mi Calm Calm - N/A   Clear
3:15 AM 63.5 °F - 62.8 °F 97% 30.06 in 10.0 mi Calm Calm - N/A   Clear
3:35 AM 65.3 °F - 63.7 °F 94% 30.05 in 10.0 mi Calm Calm - N/A   Clear
3:54 AM 64.8 °F - 63.1 °F 94% 30.05 in 10.0 mi South 3.5 mph - N/A   Clear
4:15 AM 65.3 °F - 63.9 °F 95% 30.04 in 10.0 mi South 4.6 mph - N/A   Clear
4:35 AM 65.3 °F - 63.7 °F 94% 30.05 in 10.0 mi SSE 3.5 mph - N/A   Clear
4:54 AM 65.1 °F - 63.9 °F 96% 30.04 in 10.0 mi Calm Calm - N/A   Clear
5:15 AM 64.6 °F - 63.5 °F 96% 30.04 in 7.0 mi Calm Calm - N/A   Clear
5:35 AM 63.9 °F - 63.0 °F 97% 30.05 in 7.0 mi Calm Calm - N/A   Clear
5:54 AM 63.7 °F - 63.5 °F 99% 30.05 in 7.0 mi Calm Calm - N/A   Clear
6:15 AM 63.1 °F - 63.1 °F 100% 30.06 in 5.0 mi Calm Calm - N/A   Clear
6:35 AM 62.6 °F - 62.6 °F 100% 30.05 in 2.5 mi Calm Calm - N/A   Clear
6:55 AM 63.5 °F - 63.5 °F 100% 30.06 in 3.0 mi Calm Calm - N/A   Clear
7:15 AM 64.8 °F - 64.8 °F 100% 30.06 in 4.0 mi SSE 3.5 mph - N/A   Clear
7:34 AM 66.2 °F - 65.5 °F 98% 30.07 in 5.0 mi South 3.5 mph - N/A   Clear
7:55 AM 67.3 °F - 66.2 °F 96% 30.06 in 7.0 mi South 4.6 mph - N/A   Clear
8:15 AM 68.9 °F - 66.6 °F 92% 30.05 in 7.0 mi South 5.8 mph - N/A   Clear
8:35 AM 70.9 °F - 67.1 °F 88% 30.04 in 7.0 mi South 6.9 mph - N/A   Clear
8:55 AM 72.3 °F - 67.3 °F 84% 30.03 in 10.0 mi South 5.8 mph - N/A   Clear
9:14 AM 73.6 °F - 66.2 °F 78% 30.03 in 10.0 mi South 8.1 mph - N/A   Clear
9:35 AM 75.6 °F - 66.2 °F 73% 30.02 in 10.0 mi SSW 11.5 mph 19.6 mph N/A   Clear
9:55 AM 76.5 °F - 66.0 °F 70% 30.01 in 10.0 mi SSW 13.8 mph 18.4 mph N/A   Clear
10:14 AM 77.9 °F - 66.4 °F 68% 30.00 in 10.0 mi SSW 12.7 mph 18.4 mph N/A   Clear
10:34 AM 79.0 °F - 66.2 °F 65% 30.00 in 10.0 mi SW 13.8 mph 17.3 mph N/A   Clear
10:55 AM 79.9 °F - 64.9 °F 60% 30.00 in 10.0 mi SW 15.0 mph 20.7 mph N/A   Clear
11:14 AM 81.0 °F 82.7 °F 65.1 °F 58% 30.00 in 10.0 mi SW 15.0 mph 20.7 mph N/A   Clear
11:35 AM 82.2 °F 84.0 °F 65.3 °F 56% 30.00 in 10.0 mi SW 12.7 mph 19.6 mph N/A   Clear
11:55 AM 82.4 °F 83.9 °F 64.2 °F 54% 30.00 in 10.0 mi SSW 18.4 mph 26.5 mph N/A   Clear
12:14 PM 80.6 °F 82.3 °F 64.4 °F 58% 30.00 in 10.0 mi SW 16.1 mph 26.5 mph N/A   Clear
12:35 PM 81.3 °F 82.9 °F 64.0 °F 56% 30.00 in 10.0 mi SW 17.3 mph 24.2 mph N/A   Clear
1:15 PM 82.9 °F 84.2 °F 63.5 °F 52% 29.99 in 10.0 mi SSW 19.6 mph 27.6 mph N/A   Overcast
1:35 PM 84.7 °F 86.1 °F 64.2 °F 50% 29.98 in 10.0 mi SW 17.3 mph 21.9 mph N/A   Scattered Clouds
1:54 PM 84.9 °F 86.1 °F 63.9 °F 49% 29.98 in 10.0 mi SSW 15.0 mph 23.0 mph N/A   Scattered Clouds
2:15 PM 84.0 °F 85.4 °F 64.0 °F 51% 29.97 in 7.0 mi SSW 17.3 mph 24.2 mph N/A   Mostly Cloudy
2:35 PM 83.8 °F 85.1 °F 64.2 °F 51% 29.96 in 7.0 mi SSW 16.1 mph 21.9 mph N/A   Overcast
2:55 PM 84.7 °F 86.1 °F 64.0 °F 50% 29.95 in 7.0 mi SSW 21.9 mph 25.3 mph N/A   Overcast
3:15 PM 84.4 °F 85.6 °F 64.0 °F 50% 29.94 in 7.0 mi SSW 19.6 mph 24.2 mph N/A   Scattered Clouds
3:34 PM 85.5 °F 86.8 °F 64.6 °F 49% 29.93 in 7.0 mi SW 17.3 mph 24.2 mph N/A   Scattered Clouds
3:55 PM 85.1 °F 86.4 °F 63.7 °F 49% 29.92 in 7.0 mi SSW 20.7 mph 26.5 mph N/A   Clear
4:14 PM 86.2 °F 87.3 °F 64.0 °F 47% 29.91 in 7.0 mi SSW 19.6 mph 26.5 mph N/A   Clear
4:35 PM 86.0 °F 87.6 °F 64.9 °F 49% 29.92 in 7.0 mi SW 16.1 mph - N/A   Clear
4:54 PM 85.6 °F 87.4 °F 64.9 °F 50% 29.92 in 7.0 mi SSW 16.1 mph 24.2 mph N/A   Clear
5:15 PM 83.8 °F 85.3 °F 64.6 °F 52% 29.93 in 7.0 mi SW 15.0 mph 23.0 mph N/A   Mostly Cloudy
5:35 PM 82.2 °F 83.8 °F 64.6 °F 55% 29.94 in 4.0 mi SW 12.7 mph 21.9 mph N/A   Haze
5:54 PM 81.5 °F 83.1 °F 64.2 °F 56% 29.94 in 7.0 mi SW 11.5 mph 18.4 mph N/A   Overcast
6:15 PM 81.7 °F 83.2 °F 64.0 °F 55% 29.93 in 7.0 mi SW 15.0 mph 20.7 mph N/A   Overcast
6:34 PM 81.0 °F 82.6 °F 64.4 °F 57% 29.93 in 10.0 mi SW 11.5 mph 19.6 mph N/A   Overcast
6:55 PM 81.1 °F 82.9 °F 64.9 °F 58% 29.92 in 10.0 mi SW 16.1 mph 20.7 mph N/A   Overcast
7:15 PM 80.6 °F 82.7 °F 65.8 °F 61% 29.92 in 10.0 mi SW 10.4 mph 18.4 mph N/A   Mostly Cloudy
7:34 PM 81.0 °F 83.0 °F 66.0 °F 60% 29.92 in 10.0 mi SW 13.8 mph 19.6 mph N/A   Mostly Cloudy
7:55 PM 80.6 °F 82.8 °F 66.4 °F 62% 29.92 in 10.0 mi SW 10.4 mph - N/A   Scattered Clouds
8:14 PM 80.1 °F 82.3 °F 67.1 °F 64% 29.92 in 10.0 mi SW 10.4 mph - N/A   Scattered Clouds
8:35 PM 79.7 °F - 67.6 °F 66% 29.92 in 10.0 mi SW 8.1 mph 16.1 mph N/A   Scattered Clouds
8:55 PM 79.5 °F - 68.4 °F 69% 29.92 in 10.0 mi SW 6.9 mph - N/A   Mostly Cloudy
9:15 PM 78.8 °F - 69.3 °F 72% 29.90 in 10.0 mi SSW 5.8 mph - N/A   Scattered Clouds
9:34 PM 78.8 °F - 70.7 °F 76% 29.95 in 10.0 mi West 8.1 mph - N/A   Scattered Clouds
10:14 PM 67.6 °F - 67.1 °F 98% 29.93 in 7.0 mi SSW 8.1 mph - N/A Rain Light Rain
10:35 PM 67.3 °F - 66.7 °F 98% 29.94 in 10.0 mi WSW 6.9 mph - N/A Rain Light Rain
10:55 PM 67.5 °F - 67.1 °F 99% 29.95 in 10.0 mi WSW 5.8 mph - N/A   Clear
11:14 PM 67.5 °F - 67.3 °F 99% 29.96 in 10.0 mi WNW 3.5 mph - N/A   Clear
11:35 PM 67.6 °F - 67.6 °F 100% 29.95 in 10.0 mi Calm Calm - N/A   Clear
11:55 PM 67.3 °F - 67.3 °F 100% 29.96 in 10.0 mi WNW 3.5 mph - N/A   Clear